Content
SEND FEEDBACK

United States of America Flag

OVALO, TEXAS


Home > North America > United States > Texas
Elevation: 1990 feet     Latitude: 32 07N     Longitude: 099 59W

WEATHER
 
SELECT A DAY
Number of Records: 116,586;   Date Range: 1/1/95 - 3/22/16
 
SHARE

PRINT THIS DATA

[ ← Previous Day ]
WEATHER ALMANAC - FEBRUARY 1, 2013
[ Next Day → ]
[ °C ]   °F
Weather ElementAverageHighLow
Temperature49.4 °F66.9 °F (4:52 pm)32 °F (7:52 am)
Dewpoint29.1 °F37 °F (10:52 pm)24.1 °F (2:52 pm)
Humidity49.9 %79 % (7:52 am)21 % (2:52 pm)
Barometer30.21 in30.34 in (8:52 am)30.07 in (5:52 pm)
Wind Speed7.5 mph17.3 mph (2:52 pm)
Wind Gust26.5 mph (4:52 pm)
Weather ElementAverage
Visibility10 mi
Wind DirectionESE (126.4 °)

Weather ElementTotal
Precipitation---
Heating Degree Days15.6 (Base 65)
Averaged from 22 records on February 1, 2013
WEATHER CONDITIONS BREAKOUT
WIND DIRECTION BREAKOUT
WEATHER BY HOUR - FEBRUARY 1, 2013
[ °C ]   °F
Local TimeTemperatureDewpointHumidityBarometerVisibilityWind DirectionWind SpeedGust SpeedPrecipitationEventsConditions
1:52 AM42.1 °F28.0 °F58 %30.29 in10.0 miCalmClear
2:52 AM42.1 °F28.0 °F58 %30.28 in10.0 miNE (50°)9.2 mphClear
3:52 AM39.9 °F28.0 °F63 %30.28 in10.0 miENE (70°)3.5 mphClear
4:52 AM37.9 °F28.0 °F68 %30.29 in10.0 miCalmClear
5:52 AM36.0 °F28.0 °F73 %30.31 in10.0 miNE (50°)5.8 mphClear
6:52 AM35.1 °F27.0 °F72 %30.32 in10.0 miEast (80°)5.8 mphClear
7:52 AM32.0 °F26.1 °F79 %30.32 in10.0 miEast (80°)4.6 mphClear
8:52 AM34.0 °F27.0 °F75 %30.34 in10.0 miCalmClear
9:52 AM39.0 °F27.0 °F62 %30.33 in10.0 miSE (130°)11.5 mphClear
10:52 AM45.0 °F28.0 °F52 %30.31 in10.0 miSouth (170°)8.1 mphClear
11:52 AM52.0 °F28.0 °F40 %30.26 in10.0 miVariable3.5 mphClear
12:52 PM57.9 °F27.0 °F31 %30.22 in10.0 miSouth (190°)8.1 mphClear
1:52 PM62.1 °F25.0 °F24 %30.17 in10.0 miSW (220°)10.4 mphClear
2:52 PM64.9 °F24.1 °F21 %30.13 in10.0 miSouth (190°)17.3 mph24.2 mphClear
3:52 PM66.0 °F26.1 °F22 %30.11 in10.0 miSSW (210°)15.0 mph21.9 mphClear
4:52 PM66.9 °F27.0 °F22 %30.08 in10.0 miSouth (190°)17.3 mph26.5 mphClear
5:52 PM64.9 °F30.0 °F27 %30.07 in10.0 miSouth (190°)10.4 mph20.7 mphClear
7:52 PM57.0 °F33.1 °F40 %30.10 in10.0 miSouth (190°)9.2 mphClear
8:52 PM55.0 °F34.0 °F45 %30.11 in10.0 miSouth (190°)8.1 mphClear
9:52 PM53.1 °F36.0 °F52 %30.12 in10.0 miSSW (200°)3.5 mphClear
10:52 PM53.1 °F37.0 °F55 %30.11 in10.0 miSouth (190°)6.9 mphClear
11:52 PM51.1 °F37.0 °F59 %30.10 in10.0 miSouth (190°)6.9 mphClear
Hourly data recorded from KABI, located miles away from Ovalo, Texas




STORIES FROM OUR PARTNERS